Monett, MO

6:26 PM CDT on March 29, 2017 (GMT -0500)
Monett

Weather History for KHFJ - March, 2013

Change the Weather History Date:

Tuesday, March 5, 2013

  Actual Average (KJLN) Record (KJLN)
Temperature  
Mean Temperature 36 °F -  
Max Temperature 41 °F 51 °F 81 °F (1961)
Min Temperature 30 °F 32 °F 6 °F (1960)
Degree Days  
Heating Degree Days 30    
Moisture  
Dew Point 25 °F    
Average Humidity 69    
Maximum Humidity 100    
Minimum Humidity 49    
Precipitation  
Precipitation 0.02 in - - ()
Sea Level Pressure  
Sea Level Pressure 30.15 in    
Wind  
Wind Speed 17 mph (NW)    
Max Wind Speed 28 mph    
Max Gust Speed 34 mph    
Visibility 9 miles    
Events Rain    
Averages and records for this station are not official NWS values.
T = Trace of Precipitation, MM = Missing Value Source: NWS Daily Summary

Daily Weather History Graph

Daily Weather History Graph

Search for Another Location

Airport or City:

Trip Planner

Search our weather history database for the weather conditions in past years. The results will help you decide how hot, cold, wet, or windy it might be!

Date:

Astronomy

Mar. 05, 2013 Rise Set
Actual Time 6:40 AM CST 6:14 PM CST
Civil Twilight 6:15 AM CST 6:40 PM CST
Nautical Twilight 5:45 AM CST 7:10 PM CST
Astronomical Twilight 5:15 AM CST 7:40 PM CST
Moon 1:47 AM CST (3/5) 12:00 PM CST (3/5)
Length of Visible Light 12h 25m
Length of Day
11h 33m
Last Quarter, 40% of the Moon is Illuminated
Mar 5
Last Quarter
Mar 11
New
Mar 19
First Quarter
Mar 27
Full
Apr 2
Last Quarter

Hourly Weather History & Observations

Time (CST) Temp. Windchill Dew Point Humidity Pressure Visibility Wind Dir Wind Speed Gust Speed Precip Events Conditions
12:35 AM 37.4 °F 27.8 °F 32.0 °F 81% 29.87 in 10.0 mi NNW 17.3 mph 27.6 mph N/A   Clear
12:55 AM 37.4 °F 28.5 °F 32.0 °F 81% 29.91 in 10.0 mi NNW 15.0 mph 25.3 mph N/A   Mostly Cloudy
1:15 AM 37.4 °F 26.9 °F 32.0 °F 81% 29.93 in 10.0 mi NNW 20.7 mph 27.6 mph N/A   Overcast
1:35 AM 37.4 °F 28.9 °F 32.0 °F 81% 29.93 in 10.0 mi NNW 13.8 mph 20.7 mph N/A   Overcast
1:55 AM 37.4 °F 28.5 °F 32.0 °F 81% 29.93 in 10.0 mi NNW 15.0 mph 24.2 mph N/A   Overcast
2:15 AM 37.4 °F 27.8 °F 32.0 °F 81% 29.94 in 10.0 mi NNW 17.3 mph 25.3 mph N/A   Overcast
3:15 AM 35.6 °F 26.2 °F 33.8 °F 93% 29.98 in 5.0 mi WNW 15.0 mph 19.6 mph N/A Rain Rain
3:35 AM 33.8 °F 23.5 °F 32.0 °F 93% 30.00 in 3.0 mi NW 16.1 mph 25.3 mph 0.01 in   Overcast
3:55 AM 33.8 °F 23.9 °F 32.0 °F 93% 30.00 in 5.0 mi NW 15.0 mph - 0.02 in Rain Light Rain
4:15 AM 33.8 °F 23.5 °F 32.0 °F 93% 30.02 in 4.0 mi NW 16.1 mph 19.6 mph N/A Rain Rain
4:35 AM 33.8 °F 24.8 °F 32.0 °F 93% 30.02 in 4.0 mi NW 12.7 mph 19.6 mph N/A Rain Light Rain
4:55 AM 33.8 °F 24.3 °F 33.8 °F 100% 30.00 in 5.0 mi NNW 13.8 mph 19.6 mph N/A Rain Light Rain
5:15 AM 33.8 °F 24.3 °F 32.0 °F 93% 30.04 in 5.0 mi NW 13.8 mph - N/A Rain Rain
5:35 AM 33.8 °F 23.2 °F 32.0 °F 93% 30.04 in 4.0 mi NW 17.3 mph 32.2 mph N/A Rain Light Rain
6:15 AM 33.8 °F 21.6 °F 32.0 °F 93% 30.07 in 10.0 mi NW 23.0 mph 29.9 mph N/A   Overcast
6:55 AM 33.8 °F 25.3 °F 32.0 °F 93% 30.07 in 10.0 mi NW 11.5 mph 24.2 mph N/A   Overcast
7:15 AM 33.8 °F 24.8 °F 30.2 °F 87% 30.08 in 10.0 mi NW 12.7 mph - N/A   Overcast
7:35 AM 33.8 °F 22.5 °F 28.4 °F 81% 30.08 in 10.0 mi NW 19.6 mph 25.3 mph N/A   Scattered Clouds
7:55 AM 33.8 °F 22.8 °F 28.4 °F 81% 30.09 in 10.0 mi NW 18.4 mph 27.6 mph N/A   Mostly Cloudy
8:15 AM 32.0 °F 19.2 °F 28.4 °F 87% 30.11 in 10.0 mi WNW 23.0 mph 28.8 mph N/A   Overcast
8:35 AM 32.0 °F 19.2 °F 21.2 °F 64% 30.12 in 10.0 mi NW 23.0 mph 33.4 mph N/A   Overcast
8:55 AM 32.0 °F 18.1 °F 21.2 °F 64% 30.13 in 10.0 mi NW 27.6 mph 34.5 mph N/A   Scattered Clouds
9:15 AM 32.0 °F 20.8 °F 21.2 °F 64% 30.14 in 10.0 mi WNW 17.3 mph 28.8 mph N/A   Clear
9:35 AM 32.0 °F 20.1 °F 21.2 °F 64% 30.15 in 10.0 mi NW 19.6 mph 27.6 mph N/A   Scattered Clouds
9:55 AM 32.0 °F 19.8 °F 21.2 °F 64% 30.16 in 10.0 mi NW 20.7 mph 28.8 mph N/A   Mostly Cloudy
10:15 AM 33.8 °F 22.2 °F 21.2 °F 60% 30.17 in 10.0 mi NW 20.7 mph 29.9 mph N/A   Scattered Clouds
10:35 AM 33.8 °F 22.8 °F 21.2 °F 60% 30.17 in 10.0 mi WNW 18.4 mph 27.6 mph N/A   Scattered Clouds
10:55 AM 33.8 °F 22.2 °F 19.4 °F 56% 30.18 in 10.0 mi WNW 20.7 mph 34.5 mph N/A   Scattered Clouds
11:15 AM 33.8 °F 20.8 °F 21.2 °F 60% 30.18 in 10.0 mi West 26.5 mph 33.4 mph N/A   Scattered Clouds
11:35 AM 35.6 °F 25.2 °F 21.2 °F 56% 30.18 in 10.0 mi WNW 18.4 mph 28.8 mph N/A   Scattered Clouds
11:55 AM 35.6 °F 24.2 °F 21.2 °F 56% 30.18 in 10.0 mi WNW 21.9 mph 32.2 mph N/A   Clear
12:15 PM 35.6 °F 24.2 °F 21.2 °F 56% 30.18 in 10.0 mi WNW 21.9 mph 32.2 mph N/A   Clear
12:55 PM 37.4 °F 26.6 °F 23.0 °F 56% 30.18 in 10.0 mi WNW 21.9 mph 31.1 mph N/A   Clear
1:15 PM 37.4 °F 27.5 °F 23.0 °F 56% 30.17 in 10.0 mi WNW 18.4 mph 29.9 mph N/A   Clear
1:35 PM 39.2 °F 28.5 °F 23.0 °F 52% 30.18 in 10.0 mi WNW 24.2 mph 29.9 mph N/A   Scattered Clouds
1:55 PM 37.4 °F 25.9 °F 23.0 °F 56% 30.17 in 10.0 mi West 25.3 mph 32.2 mph N/A   Clear
2:15 PM 39.2 °F 28.7 °F 24.8 °F 56% 30.17 in 10.0 mi WNW 23.0 mph 32.2 mph N/A   Scattered Clouds
2:35 PM 41.0 °F 31.4 °F 24.8 °F 53% 30.17 in 10.0 mi WNW 21.9 mph 26.5 mph N/A   Scattered Clouds
2:55 PM 41.0 °F 30.9 °F 24.8 °F 53% 30.18 in 10.0 mi WNW 24.2 mph 31.1 mph N/A   Scattered Clouds
3:15 PM 41.0 °F 32.2 °F 23.0 °F 49% 30.17 in 10.0 mi WNW 18.4 mph 28.8 mph N/A   Scattered Clouds
3:35 PM 41.0 °F 32.2 °F 24.8 °F 53% 30.18 in 10.0 mi WNW 18.4 mph 26.5 mph N/A   Scattered Clouds
3:55 PM 41.0 °F 31.4 °F 23.0 °F 49% 30.18 in 10.0 mi WNW 21.9 mph 31.1 mph N/A   Scattered Clouds
4:15 PM 41.0 °F 32.2 °F 23.0 °F 49% 30.18 in 10.0 mi WNW 18.4 mph 28.8 mph N/A   Scattered Clouds
4:35 PM 41.0 °F 31.6 °F 24.8 °F 53% 30.18 in 10.0 mi WNW 20.7 mph 27.6 mph N/A   Scattered Clouds
4:55 PM 39.2 °F 29.3 °F 23.0 °F 52% 30.19 in 10.0 mi WNW 20.7 mph 27.6 mph N/A   Scattered Clouds
5:15 PM 39.2 °F 30.5 °F 24.8 °F 56% 30.19 in 10.0 mi WNW 16.1 mph 25.3 mph N/A   Mostly Cloudy
5:35 PM 37.4 °F 28.9 °F 24.8 °F 60% 30.20 in 10.0 mi WNW 13.8 mph 26.5 mph N/A   Scattered Clouds
5:55 PM 37.4 °F 29.3 °F 24.8 °F 60% 30.21 in 10.0 mi NW 12.7 mph - N/A   Mostly Cloudy
6:15 PM 35.6 °F 24.8 °F 24.8 °F 65% 30.21 in 10.0 mi NW 19.6 mph 24.2 mph N/A   Mostly Cloudy
6:35 PM 35.6 °F 25.9 °F 24.8 °F 65% 30.22 in 10.0 mi NW 16.1 mph 20.7 mph N/A   Scattered Clouds
6:55 PM 33.8 °F 23.5 °F 23.0 °F 65% 30.22 in 10.0 mi NW 16.1 mph 26.5 mph N/A   Clear
7:15 PM 33.8 °F 24.3 °F 23.0 °F 65% 30.23 in 10.0 mi NW 13.8 mph - N/A   Clear
7:35 PM 33.8 °F 23.9 °F 23.0 °F 65% 30.24 in 10.0 mi NNW 15.0 mph 19.6 mph N/A   Clear
7:55 PM 32.0 °F 21.6 °F 23.0 °F 69% 30.25 in 10.0 mi NW 15.0 mph - N/A   Clear
8:15 PM 32.0 °F 22.1 °F 23.0 °F 69% 30.26 in 10.0 mi NW 13.8 mph - N/A   Clear
8:35 PM 32.0 °F 23.6 °F 21.2 °F 64% 30.26 in 10.0 mi NW 10.4 mph - N/A   Clear
8:55 PM 32.0 °F 23.0 °F 21.2 °F 64% 30.27 in 10.0 mi NW 11.5 mph - N/A   Clear
9:15 PM 32.0 °F 22.1 °F 21.2 °F 64% 30.28 in 10.0 mi NW 13.8 mph - N/A   Clear
9:35 PM 32.0 °F 24.2 °F 21.2 °F 64% 30.28 in 10.0 mi NW 9.2 mph - N/A   Clear
9:55 PM 30.2 °F 23.4 °F 23.0 °F 75% 30.29 in 10.0 mi NW 6.9 mph - N/A   Clear
10:15 PM 30.2 °F 21.9 °F 21.2 °F 69% 30.28 in 10.0 mi NW 9.2 mph - N/A   Clear
10:35 PM 30.2 °F 21.9 °F 21.2 °F 69% 30.29 in 10.0 mi NW 9.2 mph - N/A   Clear
10:55 PM 30.2 °F 19.8 °F 21.2 °F 69% 30.29 in 10.0 mi NW 13.8 mph 18.4 mph N/A   Clear
11:15 PM 30.2 °F 19.3 °F 19.4 °F 64% 30.29 in 10.0 mi NW 15.0 mph - N/A   Clear
11:35 PM 30.2 °F 20.8 °F 19.4 °F 64% 30.29 in 10.0 mi NNW 11.5 mph 19.6 mph N/A   Clear
11:55 PM 30.2 °F 20.2 °F 19.4 °F 64% 30.29 in 10.0 mi NW 12.7 mph 17.3 mph N/A   Clear